Temperature
11 11 11 11 11 11 10 11 11 11 11 11 11 11 11 11 10 10 10 10 10 10 10 10 10 10 10 10 9 9 10 10 10 10 10 10 10 10 10 10 10 10 10
10 10 11 10 10 10 10 10 10 10 10 10 10 10 10 10 10 10 10 10 10 9 9 9 9 9 9 9 9 9 9 9 9 9 8 8 9 9 9 9 9 10 10
10 10 10 10 10 10 10 10 10 10 10 10 10 10 10 10 10 10 9 9 9 9 9 9 9 8 8 8 8 8 8 8 8 8 7 7 8 8 8 9 9 9 9
10 10 10 10 10 10 10 10 10 9 9 9 9 9 9 9 9 9 9 9 9 8 8 8 8 8 8 8 8 8 8 7 7 7 7 7 6 6 7 8 8 8 8
10 10 10 10 10 9 9 9 9 9 9 9 9 9 9 9 8 8 8 8 8 8 8 8 7 7 7 7 7 7 7 7 7 7 6 6 6 6 6 6 7 7 7
10 10 10 9 9 9 9 9 9 9 8 8 8 8 8 8 8 8 8 8 8 7 7 7 7 7 7 7 7 7 6 6 6 6 6 6 6 6 6 5 6 6 6
9 9 9 9 9 9 9 8 8 8 8 8 8 8 7 7 7 7 7 7 7 7 7 7 7 7 7 6 6 6 6 6 6 6 5 5 5 5 5 5 5 5 5
9 9 9 9 9 9 9 8 8 8 8 8 7 7 7 7 7 7 7 7 7 7 6 6 6 6 6 6 6 6 6 5 5 5 5 5 5 5 5 4 4 4 4
9 9 9 8 8 8 8 8 8 8 8 7 7 7 7 6 6 6 6 6 6 6 6 6 6 6 6 5 5 5 5 5 5 5 5 4 4 4 4 4 4 3 3
9 9 8 8 8 8 8 7 7 7 7 7 7 7 6 6 6 6 6 6 6 6 6 5 5 5 5 5 5 5 5 4 4 4 4 4 4 4 4 4 3 3 3
9 8 8 8 8 8 7 7 7 7 7 7 6 6 6 6 6 6 6 5 5 5 5 5 5 5 4 4 4 4 4 4 4 4 3 3 3 3 3 3 3 3 2
8 8 8 8 7 7 7 7 7 7 6 6 6 6 6 6 6 5 5 5 5 5 5 4 4 4 4 4 4 3 3 3 3 3 3 3 3 3 3 2 2 2 2
8 8 7 7 7 7 7 7 7 6 6 6 6 6 6 5 5 5 5 5 4 4 4 4 4 4 3 3 3 3 3 3 2 2 2 2 2 2 2 2 2 2 2
8 7 7 7 7 7 6 6 6 6 6 5 5 5 5 5 5 5 4 4 4 4 4 3 3 3 3 3 2 2 2 2 2 2 2 2 2 2 1 1 1 1 1
7 7 7 7 6 6 6 6 6 5 5 5 5 5 5 4 4 4 4 4 4 3 3 3 3 2 2 2 2 2 2 1 1 1 1 1 1 1 1 1 1 1 1
7 7 7 6 6 6 6 6 6 5 5 5 4 4 4 4 4 4 4 3 3 3 3 2 2 2 2 1 1 1 1 1 1 1 1 1 1 1 1 0 0 0 -0
7 7 6 6 6 6 5 5 5 5 5 4 4 4 4 3 3 3 3 3 3 2 2 2 2 1 1 1 1 1 1 1 0 0 0 0 0 0 0 -0 -0 -0 -0
7 6 6 6 6 5 5 5 5 4 4 4 4 3 3 3 3 3 3 2 2 2 2 2 1 1 1 1 0 0 0 0 -0 -0 -0 -0 -0 -0 -1 -1 -1 -1 -1
6 6 6 6 5 5 5 4 4 4 4 4 3 3 3 3 2 2 2 2 2 2 1 1 1 1 1 0 -0 -0 -0 -0 -0 -0 -1 -1 -1 -1 -1 -1 -1 -1 -1
6 6 6 5 5 5 4 4 4 3 3 3 3 3 2 2 2 2 2 2 1 1 1 1 1 0 0 -0 -0 -1 -1 -1 -1 -1 -1 -1 -1 -1 -2 -2 -2 -2 -2
6 5 5 5 4 4 4 3 3 3 3 3 2 2 2 2 1 1 1 1 1 1 1 0 0 -0 -0 -1 -1 -1 -1 -1 -2 -2 -2 -1 -2 -2 -2 -2 -2 -3 -3
5 5 4 4 4 4 3 3 3 3 2 2 2 2 2 1 1 1 1 1 0 0 0 0 0 -0 -1 -1 -1 -2 -2 -2 -2 -2 -2 -2 -2 -2 -3 -3 -3 -3 -3
4 4 4 4 3 3 3 2 2 2 2 2 2 2 1 1 1 1 0 0 0 -0 -0 -0 -0 -0 -1 -1 -2 -2 -2 -2 -2 -2 -3 -3 -3 -3 -3 -3 -3 -3 -4
4 3 3 3 3 3 2 2 2 2 1 1 1 1 1 1 1 0 0 -0 -0 -0 -1 -1 -1 -1 -1 -1 -2 -2 -2 -3 -3 -3 -3 -3 -3 -3 -3 -3 -3 -4 -4
3 3 3 2 2 2 2 2 1 1 1 1 1 1 0 0 0 0 -0 -0 -0 -1 -1 -1 -1 -2 -2 -2 -2 -3 -3 -3 -3 -3 -3 -3 -3 -3 -3 -3 -4 -4 -4
3 2 2 2 2 2 2 1 1 1 1 1 0 0 0 -0 -0 -0 -0 -0 -1 -1 -1 -1 -2 -2 -2 -2 -3 -3 -3 -3 -3 -4 -4 -4 -4 -4 -4 -4 -4 -4 -4
Wind_Speed
4 3 4 5 4 3 3 2 2 1 2 2 1 1 1 1 1 2 4 5 6 6 5 4 4 4 3 3 4 3 3 3 3 3 3 3 2 2 2 2 1 2 2
3 3 4 4 4 3 3 3 2 1 1 1 0 0 0 1 1 1 3 4 4 5 4 3 3 3 3 3 4 3 2 3 2 1 2 3 3 2 2 1 1 2 3
6 5 4 4 4 3 3 3 2 1 1 1 1 2 2 2 2 2 2 3 4 4 4 3 3 3 2 3 3 3 2 3 3 1 1 2 3 3 2 2 2 2 2
5 5 5 5 5 4 3 2 3 2 1 1 2 1 1 1 2 1 1 2 4 4 4 3 3 2 2 2 3 3 2 2 3 2 1 2 2 3 4 3 2 3 3
5 5 5 5 5 4 3 3 2 2 1 1 1 1 1 1 1 1 1 2 3 3 3 3 2 2 2 2 3 3 3 2 2 2 2 2 3 3 4 6 4 4 3
4 4 4 4 3 3 2 2 3 2 2 3 2 2 2 2 1 2 1 2 2 2 3 3 2 2 2 2 2 2 3 3 3 2 2 2 3 3 3 5 6 6 4
4 3 4 4 4 4 3 3 3 3 3 2 2 3 3 3 3 2 2 2 2 2 3 3 2 2 2 2 2 2 3 3 3 3 3 3 3 3 4 5 6 6 5
3 4 4 5 5 5 4 4 4 4 3 3 3 3 3 2 2 2 2 2 2 2 3 2 2 3 3 3 2 2 3 2 2 3 3 2 3 3 3 4 4 6 6
4 4 4 4 4 5 5 5 5 5 4 4 4 4 3 3 3 3 2 2 2 2 2 2 2 3 3 3 2 2 3 2 2 2 3 3 3 3 3 3 3 5 7
3 4 4 4 4 4 4 4 5 5 5 5 4 4 4 4 4 2 2 2 2 2 2 2 2 3 3 3 2 2 3 2 3 2 3 3 3 3 3 3 4 4 6
4 4 4 4 3 3 3 4 4 4 4 5 4 4 4 3 3 3 3 3 2 2 2 2 3 3 3 3 2 2 3 3 3 3 3 4 4 4 3 3 4 4 5
4 4 4 3 3 3 4 4 4 4 5 4 4 5 4 3 3 4 3 3 2 2 2 2 2 3 3 3 3 3 3 3 3 4 4 5 4 4 4 4 4 4 5
4 3 3 4 4 4 4 4 4 5 4 4 4 4 4 4 4 4 4 3 3 3 2 2 2 3 3 3 3 3 3 3 4 4 4 5 5 5 4 5 5 4 5
4 4 4 4 5 5 5 5 5 4 4 3 4 5 5 5 5 4 4 3 3 3 3 3 3 3 3 3 3 3 4 4 5 5 5 5 5 5 5 5 5 5 5
5 4 4 5 5 5 5 5 5 4 4 4 5 6 5 4 4 4 4 4 4 4 3 3 3 3 3 3 3 3 4 4 5 5 5 5 6 7 6 5 5 4 4
6 5 5 5 5 5 5 5 5 5 4 5 5 5 4 4 5 5 4 4 4 4 3 3 4 4 4 6 7 5 4 4 5 5 5 6 6 8 9 10 9 7 6
6 6 6 6 6 6 5 6 6 4 4 5 5 5 4 5 5 5 4 4 4 4 4 4 4 5 6 8 8 8 5 4 5 5 5 6 6 7 5 8 9 9 10
6 6 5 5 5 5 5 4 4 4 4 5 5 5 5 5 5 4 5 5 4 4 4 5 5 4 6 8 8 8 4 4 5 5 5 6 6 6 6 5 6 7 7
6 5 5 5 4 5 4 3 3 3 4 5 5 5 5 5 5 5 6 5 4 4 4 4 4 5 6 8 8 7 3 4 5 5 5 5 6 10 10 6 6 7 7
4 4 4 3 4 4 3 3 4 4 5 6 6 5 5 5 6 6 6 4 4 5 5 5 5 5 5 8 9 7 3 4 5 5 5 7 8 10 11 7 6 8 8
5 4 4 4 4 4 3 4 4 6 6 5 5 4 5 5 6 5 4 4 4 4 4 5 5 5 6 7 9 8 3 4 5 5 5 5 10 11 11 9 5 8 9
5 4 4 5 4 3 3 4 6 6 4 4 4 4 4 4 4 4 4 4 4 4 4 4 5 4 5 6 8 9 8 6 4 5 5 6 10 11 11 8 8 10 9
5 4 4 5 5 4 4 6 7 5 4 4 4 4 4 4 4 4 5 3 4 4 4 4 5 4 4 5 9 9 9 8 5 5 8 9 11 9 7 8 10 8 5
6 5 4 5 6 5 5 6 6 4 4 4 5 4 4 4 4 4 4 4 4 5 5 5 5 5 4 4 4 4 5 7 6 5 7 9 9 7 7 7 6 4 4
5 4 5 6 7 6 5 5 4 4 4 5 5 4 4 4 4 4 5 6 6 6 6 6 5 5 6 7 8 5 4 4 5 4 3 3 3 4 4 4 4 4 4
5 5 6 6 7 6 6 5 4 4 5 5 5 4 4 4 4 4 5 7 8 9 10 8 6 6 8 9 9 9 9 8 7 4 3 4 4 4 5 5 4 4 4
Wind_Direction
210 168 148 135 127 127 131 125 92 58 62 42 44 39 3 31 35 21 20 21 22 14 15 11 4 3 360 346 340 334 335 335 335 335 324 315 297 284 291 310 321 343 351
189 170 152 147 148 151 156 148 120 79 68 64 33 175 307 347 342 360 7 13 19 12 12 20 4 354 356 351 344 341 332 333 353 345 322 316 319 313 311 308 301 317 337
187 180 171 172 165 170 177 171 148 129 83 54 56 43 37 14 4 1 355 355 3 6 4 9 10 352 354 342 333 327 324 316 323 330 258 285 281 312 288 287 303 316 316
180 174 172 181 187 194 185 181 161 141 110 80 93 95 87 270 277 290 309 338 354 356 354 360 6 352 348 336 324 331 314 296 301 309 283 260 271 283 299 290 294 306 303
183 179 180 187 190 189 186 186 174 151 152 146 152 161 237 258 281 304 333 343 346 349 347 349 352 344 334 326 322 324 320 304 284 284 287 289 293 270 272 289 296 297 285
192 187 182 172 182 184 187 192 186 190 191 181 180 189 219 238 275 309 320 324 328 333 336 338 340 332 328 326 323 318 315 309 301 296 286 277 277 280 275 281 292 295 292
180 186 190 193 201 203 210 207 200 208 205 194 195 205 218 217 224 253 266 284 304 310 314 322 325 324 318 319 322 322 319 312 302 297 293 289 282 279 277 279 290 294 295
190 200 210 210 209 210 212 212 212 220 213 207 215 214 211 211 228 240 244 255 268 279 290 300 310 315 317 321 321 321 314 314 306 306 302 301 297 293 284 279 286 294 294
215 216 219 218 218 218 216 213 216 223 222 217 213 213 211 210 224 235 238 253 270 290 291 300 308 314 316 311 309 312 307 309 307 305 306 300 298 295 289 285 276 273 286
240 233 229 228 225 224 226 223 222 223 227 224 220 218 216 217 218 218 229 246 263 279 295 302 303 306 310 310 312 307 305 313 309 303 306 306 303 302 291 285 283 271 269
234 235 240 239 232 233 228 229 233 235 236 230 223 220 218 214 213 218 228 236 252 262 272 282 290 295 302 303 306 302 310 314 314 314 311 305 303 301 301 296 285 274 267
238 236 236 242 244 244 243 241 241 241 241 232 220 220 217 212 216 227 231 228 240 251 260 271 285 290 295 296 295 297 306 302 304 305 305 301 301 300 296 294 287 278 270
252 245 237 240 245 247 249 249 247 245 242 227 222 224 224 220 224 228 227 226 232 245 255 261 273 280 287 292 290 287 293 289 286 287 288 290 292 292 295 294 289 283 282
249 243 247 250 251 250 247 248 253 248 237 225 226 230 231 228 226 225 224 227 228 234 244 254 263 270 278 281 281 287 290 289 286 284 283 285 283 284 287 288 287 289 287
251 248 249 250 255 259 258 253 252 248 232 225 232 237 235 226 223 225 226 227 230 237 238 249 262 268 272 272 277 284 286 284 287 288 286 285 285 282 283 287 286 290 290
253 256 258 254 253 253 255 256 252 248 230 225 235 239 233 226 225 226 223 224 233 236 237 244 253 264 273 279 281 285 274 276 279 286 288 289 288 292 295 292 288 285 285
257 259 257 253 251 250 246 245 248 249 236 234 237 236 231 231 231 226 220 227 231 228 237 243 246 255 266 277 281 283 285 273 274 279 285 292 295 298 296 297 298 295 292
254 258 256 255 256 251 248 249 246 242 240 241 242 240 236 237 233 223 226 231 229 230 238 244 245 255 269 279 283 288 286 275 274 278 282 285 291 295 296 298 301 293 290
248 249 246 248 252 256 249 243 245 247 248 250 247 241 232 236 232 230 233 230 227 236 239 244 244 251 267 277 283 287 281 280 282 286 287 288 289 296 301 299 296 301 300
252 249 251 255 258 261 245 234 247 249 252 252 250 243 229 228 233 235 234 228 224 235 240 247 243 244 257 272 280 284 268 275 284 289 287 286 292 297 301 298 295 298 300
257 253 251 255 254 252 234 242 251 253 255 255 251 244 234 232 236 237 234 231 228 233 240 248 252 248 255 269 276 279 269 265 278 284 288 289 296 299 300 299 291 292 302
266 258 254 264 263 242 226 248 257 260 260 251 248 247 243 240 240 234 237 230 220 230 243 250 264 257 256 266 274 278 277 277 270 277 282 287 295 298 300 303 302 306 313
261 258 251 262 266 243 224 244 262 262 253 247 251 254 252 244 235 228 231 231 222 228 243 247 260 269 261 264 270 274 279 279 275 274 286 293 298 300 301 302 306 311 311
260 260 257 261 267 257 242 244 257 249 237 246 255 255 252 254 245 233 225 225 227 232 241 247 256 264 264 258 261 265 272 278 278 280 285 292 296 297 297 303 307 306 298
261 252 250 256 262 262 256 255 249 233 238 249 255 255 250 250 249 241 232 231 230 229 234 238 240 249 259 261 265 269 267 270 272 291 294 292 299 298 299 302 301 301 304
260 260 258 258 263 261 261 259 243 226 233 252 253 249 249 250 246 249 261 252 247 253 249 250 250 253 260 277 273 269 270 271 272 277 278 277 279 284 292 298 300 296 297
Height
1509 1510 1511 1512 1513 1514 1514 1514 1513 1513 1512 1512 1510 1511 1511 1510 1511 1510 1510 1509 1509 1508 1507 1506 1505 1504 1503 1503 1502 1501 1501 1500 1499 1498 1496 1496 1495 1495 1494 1494 1494 1494 1494
1507 1508 1509 1510 1511 1512 1512 1512 1511 1511 1511 1510 1510 1509 1509 1508 1508 1508 1508 1507 1506 1506 1504 1503 1502 1501 1500 1500 1499 1498 1497 1497 1496 1496 1494 1492 1492 1491 1491 1490 1490 1490 1490
1505 1506 1507 1508 1509 1510 1510 1510 1509 1510 1509 1509 1508 1508 1507 1507 1507 1506 1506 1505 1504 1503 1502 1500 1499 1499 1498 1497 1496 1496 1495 1494 1493 1493 1493 1491 1489 1487 1486 1486 1486 1486 1486
1504 1505 1505 1506 1507 1508 1508 1508 1508 1508 1507 1507 1507 1506 1506 1505 1504 1504 1503 1502 1501 1500 1499 1498 1497 1496 1495 1494 1493 1493 1492 1491 1490 1489 1489 1489 1488 1487 1483 1482 1483 1482 1482
1503 1503 1504 1505 1506 1506 1506 1506 1506 1505 1506 1505 1505 1505 1505 1504 1503 1502 1501 1500 1499 1498 1497 1496 1495 1494 1492 1491 1490 1489 1489 1488 1487 1486 1485 1485 1484 1484 1482 1478 1477 1477 1477
1501 1502 1503 1504 1504 1504 1505 1504 1504 1504 1504 1504 1503 1503 1503 1502 1501 1499 1498 1497 1496 1496 1495 1493 1492 1491 1490 1489 1487 1486 1486 1485 1484 1483 1482 1482 1481 1480 1479 1476 1473 1471 1471
1500 1501 1501 1502 1502 1502 1502 1502 1502 1501 1501 1501 1501 1501 1501 1500 1499 1498 1496 1495 1494 1493 1492 1491 1489 1488 1487 1486 1485 1484 1482 1481 1480 1480 1479 1478 1478 1477 1475 1473 1470 1468 1466
1499 1499 1500 1500 1500 1500 1500 1500 1499 1499 1499 1499 1499 1498 1498 1497 1497 1496 1494 1493 1492 1490 1489 1488 1487 1486 1484 1483 1482 1481 1479 1478 1477 1476 1476 1475 1474 1473 1472 1470 1468 1464 1461
1498 1498 1498 1498 1498 1498 1498 1498 1497 1497 1496 1496 1496 1496 1495 1494 1494 1493 1492 1490 1489 1488 1486 1485 1484 1483 1481 1480 1479 1478 1476 1475 1474 1473 1472 1471 1470 1469 1468 1467 1466 1464 1459
1496 1496 1496 1496 1496 1496 1496 1495 1495 1494 1494 1494 1493 1493 1492 1491 1491 1490 1489 1488 1486 1485 1483 1482 1481 1480 1478 1477 1476 1474 1473 1472 1470 1469 1468 1467 1466 1465 1464 1462 1461 1459 1457
1494 1494 1494 1494 1494 1493 1493 1492 1492 1491 1490 1490 1490 1489 1489 1488 1487 1486 1485 1484 1483 1482 1480 1479 1478 1476 1475 1474 1473 1471 1470 1468 1467 1466 1464 1463 1462 1461 1459 1458 1456 1454 1453
1493 1493 1492 1492 1491 1490 1490 1489 1488 1487 1487 1486 1486 1485 1485 1484 1483 1483 1482 1481 1479 1478 1477 1476 1474 1473 1472 1470 1469 1468 1466 1465 1463 1462 1460 1459 1458 1456 1455 1453 1451 1449 1448
1491 1490 1489 1489 1488 1487 1487 1486 1485 1484 1483 1483 1482 1481 1481 1480 1479 1479 1478 1477 1476 1475 1473 1472 1471 1469 1468 1467 1465 1464 1463 1461 1459 1458 1457 1455 1454 1452 1450 1448 1446 1444 1443
1488 1487 1486 1486 1485 1484 1483 1482 1481 1480 1480 1479 1478 1477 1477 1476 1475 1475 1474 1473 1472 1471 1470 1469 1467 1466 1465 1463 1462 1460 1459 1457 1456 1454 1453 1451 1449 1448 1446 1444 1442 1440 1438
1485 1484 1483 1482 1482 1481 1480 1479 1477 1476 1475 1474 1473 1473 1472 1472 1471 1470 1470 1469 1468 1467 1466 1465 1464 1462 1461 1460 1458 1457 1455 1454 1452 1451 1449 1447 1445 1443 1441 1439 1437 1435 1433
1481 1480 1480 1479 1478 1477 1476 1475 1474 1473 1472 1470 1469 1469 1468 1467 1467 1466 1465 1465 1464 1463 1462 1461 1460 1459 1457 1456 1455 1453 1451 1450 1448 1446 1445 1443 1441 1439 1437 1435 1433 1431 1429
1477 1477 1476 1475 1474 1474 1473 1471 1470 1469 1468 1466 1465 1464 1464 1463 1462 1462 1461 1460 1459 1459 1458 1457 1456 1455 1454 1452 1451 1449 1448 1446 1444 1442 1440 1438 1436 1434 1432 1430 1428 1426 1424
1474 1473 1472 1471 1471 1470 1469 1467 1466 1465 1463 1462 1461 1460 1459 1458 1458 1457 1456 1456 1455 1454 1454 1453 1452 1451 1450 1448 1447 1445 1443 1441 1440 1438 1436 1434 1432 1430 1427 1425 1423 1421 1419
1471 1470 1469 1468 1467 1465 1464 1463 1461 1460 1459 1457 1456 1456 1455 1453 1453 1452 1452 1451 1451 1450 1449 1448 1448 1446 1445 1444 1442 1441 1438 1437 1435 1433 1432 1430 1427 1425 1423 1421 1418 1415 1413
1468 1466 1465 1464 1462 1461 1460 1458 1456 1455 1454 1453 1452 1451 1450 1449 1448 1448 1447 1447 1446 1445 1445 1444 1443 1442 1441 1440 1438 1436 1434 1432 1430 1429 1427 1425 1423 1421 1418 1416 1413 1410 1408
1464 1463 1461 1459 1458 1457 1455 1453 1452 1451 1450 1448 1447 1446 1445 1444 1444 1443 1442 1442 1441 1441 1440 1439 1439 1438 1436 1435 1433 1431 1430 1428 1426 1424 1422 1420 1418 1416 1414 1411 1409 1406 1404
1459 1458 1456 1454 1453 1452 1450 1448 1447 1446 1445 1443 1442 1441 1441 1440 1439 1438 1437 1437 1436 1435 1435 1434 1433 1433 1432 1430 1429 1427 1426 1424 1422 1419 1417 1415 1413 1411 1409 1407 1404 1402 1399
1455 1453 1451 1449 1448 1447 1445 1443 1442 1441 1440 1438 1437 1436 1436 1435 1434 1433 1432 1432 1431 1430 1429 1429 1428 1427 1427 1426 1424 1423 1421 1419 1417 1415 1413 1411 1409 1407 1404 1402 1400 1397 1394
1449 1448 1446 1444 1442 1441 1440 1439 1437 1436 1435 1433 1432 1431 1431 1430 1429 1428 1428 1427 1426 1425 1424 1423 1423 1422 1421 1420 1419 1417 1416 1414 1413 1411 1409 1407 1405 1402 1400 1398 1395 1393 1390
1444 1442 1440 1438 1437 1436 1434 1433 1432 1431 1429 1428 1427 1426 1426 1425 1424 1423 1423 1422 1421 1420 1420 1419 1418 1417 1416 1415 1415 1413 1411 1410 1408 1406 1404 1402 1400 1398 1396 1393 1391 1389 1386
1438 1436 1435 1433 1431 1430 1429 1428 1427 1426 1424 1423 1422 1421 1421 1420 1419 1418 1418 1417 1416 1415 1415 1414 1413 1412 1412 1411 1409 1408 1407 1405 1404 1402 1399 1398 1396 1394 1392 1389 1387 1385 1382